Location: Ariel
(45.9570°N, 122.5700°W)
Time: 13:05:18
(UTC-07:00)

Transit 4A - Pass Details

Date: 27 July 2019
Orbit: 864 x 981 km, 66.8° (Epoch: 25 August)

Event Time Altitude Azimuth Distance (km) Brightness Sun altitude
Rises 10:54:57 0° 321° (NW) 3,661 10.6 50.4°
Reaches altitude 10° 10:57:43 10° 313° (NW) 2,696 10.1 50.8°
Maximum altitude 11:03:21 36° 249° (WSW) 1,450 9.1 51.7°
Drops below altitude 10° 11:08:49 10° 185° (S) 2,608 10.6 52.4°
Sets 11:11:28 0° 177° (S) 3,527 11.2 52.8°
